| time (UTC) | temp F | wind direction | speed knots | gust knots | rain 1hr in | rain 24hr in | rain mn in | humidity % | barometer mb |
| 20260906145211 | 71 | 46 | 7.0 | 9.6 | 0.00 | 0.00 | 0.00 | 63 | 1018.3 |
| 20260906144706 | 71 | 18 | 8.7 | 12.2 | 0.00 | 0.00 | 0.00 | 63 | 1018.2 |
| 20260906144201 | 72 | 23 | 6.1 | 8.7 | 0.00 | 0.00 | 0.00 | 65 | 1018.3 |
| 20260906143700 | 71 | 108 | 1.7 | 3.5 | 0.00 | 0.00 | 0.00 | 66 | 1018.2 |
| 20260906143158 | 70 | 42 | 2.6 | 7.0 | 0.00 | 0.00 | 0.00 | 67 | 1018.1 |
| 20260906142652 | 69 | 49 | 5.2 | 9.6 | 0.00 | 0.00 | 0.00 | 69 | 1017.8 |
| 20260906142147 | 69 | 46 | 7.0 | 7.0 | 0.00 | 0.00 | 0.00 | 68 | 1018.0 |
| 20260906141646 | 70 | 35 | 4.3 | 8.7 | 0.00 | 0.00 | 0.00 | 67 | 1018.1 |
| 20260906141141 | 69 | 73 | 1.7 | 3.5 | 0.00 | 0.00 | 0.00 | 67 | 1018.0 |
| 20260906140640 | 70 | 21 | 2.6 | 6.1 | 0.00 | 0.00 | 0.00 | 68 | 1018.1 |
| 20260906140135 | 69 | 64 | 0.0 | 3.5 | 0.00 | 0.00 | 0.00 | 70 | 1018.0 |
| 20260906135632 | 69 | 37 | 3.5 | 7.0 | 0.00 | 0.00 | 0.00 | 70 | 1017.9 |
| 20260906135128 | 68 | 13 | 7.0 | 8.7 | 0.00 | 0.00 | 0.00 | 73 | 1017.8 |
| 20260906134624 | 67 | 81 | 0.9 | 2.6 | 0.00 | 0.00 | 0.00 | 76 | 1017.8 |
| 20260906134119 | 67 | 52 | 4.3 | 6.1 | 0.00 | 0.00 | 0.00 | 76 | 1017.8 |
| 20260906133614 | 67 | 22 | 2.6 | 3.5 | 0.00 | 0.00 | 0.00 | 78 | 1017.9 |
| 20260906133109 | 66 | 48 | 4.3 | 4.3 | 0.00 | 0.00 | 0.00 | 78 | 1017.8 |
| 20260906132604 | 66 | 18 | 3.5 | 4.3 | 0.00 | 0.00 | 0.00 | 79 | 1017.7 |
| 20260906132100 | 65 | 87 | 2.6 | 2.6 | 0.00 | 0.00 | 0.00 | 80 | 1017.9 |
| 20260906131555 | 65 | 8 | 4.3 | 4.3 | 0.00 | 0.00 | 0.00 | 81 | 1017.6 |
| 20260906131050 | 65 | 18 | 2.6 | 4.3 | 0.00 | 0.00 | 0.00 | 82 | 1017.8 |
| 20260906130549 | 65 | 43 | 2.6 | 6.1 | 0.00 | 0.00 | 0.00 | 83 | 1017.7 |
| 20260906130045 | 64 | 27 | 1.7 | 3.5 | 0.00 | 0.00 | 0.00 | 84 | 1017.7 |
| 20260906125537 | 65 | 17 | 2.6 | 3.5 | 0.00 | 0.00 | 0.00 | 84 | 1017.7 |
| 20260906125036 | 65 | 37 | 0.0 | 0.9 | 0.00 | 0.00 | 0.00 | 87 | 1017.6 |
| 20260906124532 | 64 | 37 | 0.0 | 0.9 | 0.00 | 0.00 | 0.00 | 91 | 1017.7 |
| 20260906124027 | 62 | 29 | 0.0 | 0.0 | 0.00 | 0.00 | 0.00 | 98 | 1017.7 |
| 20260906123526 | 60 | 29 | 0.0 | 0.0 | 0.00 | 0.00 | 0.00 | 99 | 1017.5 |
| 20260906123022 | 60 | 29 | 1.7 | 2.6 | 0.00 | 0.00 | 0.00 | 99 | 1017.6 |
| 20260906122521 | 59 | 39 | 0.9 | 0.9 | 0.00 | 0.00 | 0.00 | 99 | 1017.4 |
| 20260906122017 | 59 | 39 | 0.9 | 0.9 | 0.00 | 0.00 | 0.00 | 99 | 1017.3 |
| 20260906121514 | 59 | 39 | 0.0 | 0.9 | 0.00 | 0.00 | 0.00 | 99 | 1017.2 |
| 20260906121010 | 58 | 39 | 0.9 | 0.9 | 0.00 | 0.00 | 0.00 | 99 | 1017.4 |
| 20260906120510 | 58 | 39 | 0.9 | 0.9 | 0.00 | 0.00 | 0.00 | 99 | 1017.3 |
| 20260906120007 | 58 | 39 | 0.0 | 0.0 | 0.00 | 0.00 | 0.00 | 99 | 1017.3 |
| 20260906115502 | 58 | 39 | 0.0 | 0.0 | 0.00 | 0.00 | 0.00 | 99 | 1017.3 |
| 20260906114956 | 57 | 39 | 0.9 | 0.9 | 0.00 | 0.00 | 0.00 | 99 | 1017.0 |
| 20260906114451 | 56 | 39 | 0.0 | 0.0 | 0.00 | 0.00 | 0.00 | 99 | 1017.0 |
| 20260906113947 | 55 | 39 | 0.0 | 0.9 | 0.00 | 0.00 | 0.00 | 99 | 1017.0 |
| 20260906113445 | 55 | 38 | 0.0 | 0.0 | 0.00 | 0.00 | 0.00 | 99 | 1016.9 |
| 20260906112941 | 55 | 38 | 0.0 | 0.0 | 0.00 | 0.00 | 0.00 | 99 | 1016.7 |
| 20260906112436 | 55 | 38 | 0.0 | 0.0 | 0.00 | 0.00 | 0.00 | 99 | 1016.7 |
| 20260906111932 | 55 | 38 | 0.0 | 0.0 | 0.00 | 0.00 | 0.00 | 99 | 1016.7 |
| 20260906111431 | 55 | 38 | 0.0 | 0.0 | 0.00 | 0.00 | 0.00 | 99 | 1016.6 |
| 20260906110926 | 55 | 38 | 0.0 | 0.0 | 0.00 | 0.00 | 0.00 | 99 | 1016.7 |
| 20260906110422 | 55 | 38 | 0.9 | 0.9 | 0.00 | 0.00 | 0.00 | 99 | 1016.6 |
| 20260906105921 | 55 | 38 | 0.0 | 0.0 | 0.00 | 0.00 | 0.00 | 99 | 1016.5 |
| 20260906105417 | 55 | 38 | 0.0 | 0.0 | 0.00 | 0.00 | 0.00 | 99 | 1016.5 |
| 20260906104912 | 55 | 38 | 0.0 | 0.0 | 0.00 | 0.00 | 0.00 | 99 | 1016.5 |
| 20260906104411 | 54 | 38 | 0.0 | 0.0 | 0.00 | 0.00 | 0.00 | 99 | 1016.6 |
| 20260906103910 | 54 | 38 | 0.0 | 0.0 | 0.00 | 0.00 | 0.00 | 99 | 1016.4 |
| 20260906103408 | 54 | 38 | 0.0 | 0.0 | 0.00 | 0.00 | 0.00 | 99 | 1016.6 |
| 20260906102904 | 54 | 38 | 0.0 | 0.0 | 0.00 | 0.00 | 0.00 | 99 | 1016.5 |
| 20260906102403 | 55 | 38 | 0.0 | 0.0 | 0.00 | 0.00 | 0.00 | 99 | 1016.5 |
| 20260906101858 | 55 | 38 | 0.0 | 0.0 | 0.00 | 0.00 | 0.00 | 99 | 1016.4 |
| 20260906101353 | 55 | 38 | 0.0 | 0.0 | 0.00 | 0.00 | 0.00 | 99 | 1016.6 |
| 20260906100849 | 55 | 38 | 0.0 | 0.0 | 0.00 | 0.00 | 0.00 | 99 | 1016.3 |
| 20260906100348 | 55 | 38 | 0.0 | 0.0 | 0.00 | 0.00 | 0.00 | 99 | 1016.5 |
| 20260906095843 | 55 | 38 | 0.0 | 0.0 | 0.00 | 0.00 | 0.00 | 99 | 1016.4 |
| 20260906095339 | 55 | 38 | 0.0 | 0.0 | 0.00 | 0.00 | 0.00 | 99 | 1016.2 |
| 20260906094838 | 55 | 38 | 0.0 | 0.0 | 0.00 | 0.00 | 0.00 | 99 | 1016.2 |
| 20260906094333 | 55 | 38 | 0.0 | 0.0 | 0.00 | 0.00 | 0.00 | 99 | 1016.2 |
| 20260906093830 | 55 | 38 | 0.0 | 0.0 | 0.00 | 0.00 | 0.00 | 99 | 1016.2 |
| 20260906093325 | 55 | 38 | 0.0 | 0.0 | 0.00 | 0.00 | 0.00 | 99 | 1016.3 |
| 20260906092819 | 55 | 38 | 0.0 | 0.0 | 0.00 | 0.00 | 0.00 | 99 | 1016.3 |
| 20260906092314 | 55 | 38 | 0.0 | 0.0 | 0.00 | 0.00 | 0.00 | 99 | 1016.1 |
| 20260906091809 | 55 | 38 | 0.0 | 0.0 | 0.00 | 0.00 | 0.00 | 99 | 1016.3 |
| 20260906091305 | 55 | 38 | 0.0 | 0.0 | 0.00 | 0.00 | 0.00 | 99 | 1016.4 |
| 20260906090802 | 55 | 38 | 0.0 | 0.0 | 0.00 | 0.00 | 0.00 | 99 | 1016.6 |
| 20260906090300 | 55 | 38 | 0.0 | 0.0 | 0.00 | 0.00 | 0.00 | 99 | 1016.5 |
| 20260906085800 | 55 | 38 | 0.0 | 0.0 | 0.00 | 0.00 | 0.00 | 99 | 1016.3 |
| 20260906085253 | 55 | 38 | 0.0 | 0.0 | 0.00 | 0.00 | 0.00 | 99 | 1016.2 |
| 20260906084748 | 55 | 38 | 0.0 | 0.0 | 0.00 | 0.00 | 0.00 | 99 | 1016.2 |
| 20260906084242 | 55 | 38 | 0.0 | 0.0 | 0.00 | 0.00 | 0.00 | 99 | 1016.0 |
| 20260906083737 | 55 | 38 | 0.0 | 0.0 | 0.00 | 0.00 | 0.00 | 99 | 1016.2 |
| 20260906083233 | 55 | 38 | 0.0 | 0.0 | 0.00 | 0.00 | 0.00 | 99 | 1016.2 |
| 20260906082728 | 55 | 38 | 0.0 | 0.0 | 0.00 | 0.00 | 0.00 | 99 | 1015.9 |
| 20260906082223 | 55 | 38 | 0.0 | 0.0 | 0.00 | 0.00 | 0.00 | 99 | 1016.1 |
| 20260906081719 | 55 | 38 | 0.0 | 0.0 | 0.00 | 0.00 | 0.00 | 99 | 1016.0 |
| 20260906081214 | 55 | 38 | 0.0 | 0.0 | 0.00 | 0.00 | 0.00 | 99 | 1016.1 |
| 20260906080710 | 55 | 38 | 0.0 | 0.0 | 0.00 | 0.00 | 0.00 | 99 | 1015.8 |
| 20260906080206 | 56 | 38 | 0.0 | 0.0 | 0.00 | 0.00 | 0.00 | 99 | 1015.9 |
| 20260906075700 | 55 | 38 | 0.0 | 0.0 | 0.00 | 0.00 | 0.00 | 99 | 1015.8 |
| 20260906075154 | 55 | 38 | 0.0 | 0.0 | 0.00 | 0.00 | 0.00 | 99 | 1015.7 |
| 20260906074649 | 55 | 38 | 0.0 | 0.0 | 0.00 | 0.00 | 0.00 | 99 | 1015.7 |
| 20260906074143 | 56 | 38 | 0.0 | 0.0 | 0.00 | 0.00 | 0.00 | 99 | 1015.8 |
| 20260906073638 | 55 | 38 | 0.0 | 0.0 | 0.00 | 0.00 | 0.00 | 99 | 1015.8 |
| 20260906073134 | 55 | 38 | 0.0 | 0.0 | 0.00 | 0.00 | 0.00 | 99 | 1015.8 |
| 20260906072629 | 55 | 38 | 0.0 | 0.0 | 0.00 | 0.00 | 0.00 | 99 | 1015.7 |
| 20260906072124 | 55 | 38 | 0.0 | 0.0 | 0.00 | 0.00 | 0.00 | 99 | 1015.8 |
| 20260906071620 | 56 | 38 | 0.0 | 0.0 | 0.00 | 0.00 | 0.00 | 99 | 1015.9 |
| 20260906071115 | 56 | 38 | 0.0 | 0.0 | 0.00 | 0.00 | 0.00 | 99 | 1015.7 |
| 20260906070612 | 56 | 38 | 0.0 | 0.0 | 0.00 | 0.00 | 0.00 | 99 | 1015.9 |
| 20260906070107 | 56 | 38 | 0.0 | 0.0 | 0.00 | 0.00 | 0.00 | 98 | 1015.7 |
| 20260906065607 | 56 | 38 | 0.0 | 0.0 | 0.00 | 0.00 | 0.00 | 98 | 1015.6 |
| 20260906065102 | 56 | 38 | 0.0 | 0.0 | 0.00 | 0.00 | 0.00 | 98 | 1015.7 |
| 20260906064557 | 57 | 38 | 0.0 | 0.0 | 0.00 | 0.00 | 0.00 | 98 | 1015.6 |
| 20260906064052 | 57 | 38 | 0.0 | 0.0 | 0.00 | 0.00 | 0.00 | 98 | 1015.4 |
| 20260906063547 | 57 | 38 | 0.0 | 0.0 | 0.00 | 0.00 | 0.00 | 98 | 1015.8 |
| 20260906063043 | 57 | 38 | 0.0 | 0.0 | 0.00 | 0.00 | 0.00 | 98 | 1015.6 |
| 20260906062538 | 57 | 38 | 0.0 | 0.0 | 0.00 | 0.00 | 0.00 | 98 | 1015.6 |
| 20260906062032 | 57 | 38 | 0.0 | 0.0 | 0.00 | 0.00 | 0.00 | 98 | 1015.7 |
| 20260906061529 | 57 | 38 | 0.0 | 0.0 | 0.00 | 0.00 | 0.00 | 98 | 1015.7 |
| 20260906061027 | 57 | 38 | 0.0 | 0.0 | 0.00 | 0.00 | 0.00 | 98 | 1015.6 |
| 20260906060525 | 57 | 38 | 0.0 | 0.0 | 0.00 | 0.00 | 0.00 | 98 | 1015.6 |
| 20260906060021 | 57 | 38 | 0.0 | 0.0 | 0.00 | 0.00 | 0.00 | 98 | 1015.5 |
| 20260906055517 | 57 | 38 | 0.0 | 0.0 | 0.00 | 0.00 | 0.00 | 98 | 1015.5 |
| 20260906055012 | 57 | 38 | 0.0 | 0.0 | 0.00 | 0.00 | 0.00 | 98 | 1015.5 |
| 20260906054507 | 58 | 38 | 0.0 | 0.0 | 0.00 | 0.00 | 0.00 | 98 | 1015.6 |
| 20260906054003 | 58 | 38 | 0.0 | 0.0 | 0.00 | 0.00 | 0.00 | 98 | 1015.5 |
| 20260906053459 | 58 | 38 | 0.0 | 0.0 | 0.00 | 0.00 | 0.00 | 98 | 1015.4 |
| 20260906052954 | 57 | 38 | 0.0 | 0.0 | 0.00 | 0.00 | 0.00 | 98 | 1015.5 |
| 20260906052450 | 57 | 38 | 0.0 | 0.0 | 0.00 | 0.00 | 0.00 | 97 | 1015.4 |
| 20260906051947 | 57 | 38 | 0.0 | 0.0 | 0.00 | 0.00 | 0.00 | 97 | 1015.4 |
| 20260906051442 | 58 | 38 | 0.0 | 0.0 | 0.00 | 0.00 | 0.00 | 97 | 1015.5 |
| 20260906050937 | 58 | 38 | 0.0 | 0.0 | 0.00 | 0.00 | 0.00 | 97 | 1015.5 |
| 20260906050437 | 58 | 38 | 0.0 | 0.0 | 0.00 | 0.00 | 0.00 | 97 | 1015.2 |
| 20260906045936 | 59 | 38 | 0.0 | 0.0 | 0.00 | 0.00 | 0.00 | 97 | 1015.3 |
| 20260906045435 | 59 | 38 | 0.0 | 0.0 | 0.00 | 0.00 | 0.00 | 97 | 1015.4 |
| 20260906044931 | 59 | 38 | 0.0 | 0.0 | 0.00 | 0.00 | 0.00 | 97 | 1015.3 |
| 20260906044426 | 59 | 38 | 0.0 | 0.0 | 0.00 | 0.00 | 0.00 | 96 | 1015.1 |
| 20260906043922 | 59 | 38 | 0.0 | 0.0 | 0.00 | 0.00 | 0.00 | 96 | 1015.2 |
| 20260906043417 | 59 | 38 | 0.0 | 0.0 | 0.00 | 0.00 | 0.00 | 96 | 1015.5 |
| 20260906042913 | 60 | 38 | 0.0 | 0.0 | 0.00 | 0.00 | 0.00 | 96 | 1015.5 |
| 20260906042412 | 60 | 38 | 0.9 | 0.0 | 0.00 | 0.00 | 0.00 | 96 | 1015.4 |
| 20260906041907 | 59 | 38 | 0.0 | 0.9 | 0.00 | 0.00 | 0.00 | 95 | 1015.6 |
| 20260906041403 | 59 | 38 | 0.0 | 0.9 | 0.00 | 0.00 | 0.00 | 94 | 1015.5 |
| 20260906040903 | 59 | 38 | 0.0 | 0.0 | 0.00 | 0.00 | 0.00 | 93 | 1015.7 |
| 20260906040358 | 59 | 38 | 0.0 | 0.0 | 0.00 | 0.00 | 0.00 | 93 | 1015.6 |
| 20260906035853 | 59 | 39 | 0.0 | 0.0 | 0.00 | 0.01 | 0.01 | 93 | 1015.6 |
| 20260906035349 | 60 | 39 | 0.0 | 0.0 | 0.00 | 0.01 | 0.01 | 91 | 1015.5 |
| 20260906034843 | 60 | 39 | 0.0 | 0.0 | 0.00 | 0.01 | 0.01 | 91 | 1015.5 |
| 20260906034338 | 60 | 38 | 0.0 | 0.0 | 0.00 | 0.01 | 0.01 | 91 | 1015.5 |
| 20260906033834 | 60 | 38 | 0.0 | 0.0 | 0.00 | 0.01 | 0.01 | 90 | 1015.6 |
| 20260906033333 | 60 | 39 | 0.0 | 0.9 | 0.00 | 0.01 | 0.01 | 90 | 1015.6 |
| 20260906032830 | 60 | 38 | 0.0 | 0.0 | 0.00 | 0.01 | 0.01 | 90 | 1015.5 |
| 20260906032326 | 60 | 38 | 0.0 | 0.0 | 0.00 | 0.01 | 0.01 | 90 | 1015.5 |
| 20260906031821 | 60 | 38 | 0.0 | 0.9 | 0.00 | 0.01 | 0.01 | 90 | 1015.6 |
| 20260906031316 | 60 | 43 | 0.0 | 0.0 | 0.00 | 0.01 | 0.01 | 89 | 1015.7 |
| 20260906030815 | 61 | 43 | 0.0 | 0.0 | 0.00 | 0.01 | 0.01 | 89 | 1015.5 |
| 20260906030311 | 61 | 44 | 0.0 | 0.0 | 0.00 | 0.01 | 0.01 | 87 | 1015.4 |
| 20260906025810 | 62 | 44 | 0.0 | 0.0 | 0.00 | 0.01 | 0.01 | 87 | 1015.3 |
| 20260906025259 | 61 | 355 | 0.0 | 0.0 | 0.00 | 0.01 | 0.01 | 88 | 1015.5 |
| 20260906024758 | 61 | 354 | 0.0 | 0.0 | 0.00 | 0.01 | 0.01 | 91 | 1015.5 |
| 20260906024258 | 60 | 354 | 0.0 | 0.0 | 0.00 | 0.01 | 0.01 | 91 | 1015.6 |
| 20260906023753 | 61 | 354 | 0.0 | 0.0 | 0.00 | 0.01 | 0.01 | 90 | 1015.3 |
| 20260906023249 | 61 | 354 | 0.0 | 0.0 | 0.00 | 0.01 | 0.01 | 90 | 1015.3 |
| 20260906022744 | 61 | 354 | 0.0 | 0.0 | 0.00 | 0.01 | 0.01 | 90 | 1015.2 |
| 20260906022239 | 62 | 354 | 0.0 | 0.0 | 0.00 | 0.01 | 0.01 | 88 | 1015.4 |
| 20260906021736 | 62 | 354 | 0.0 | 0.0 | 0.00 | 0.01 | 0.01 | 88 | 1015.2 |
| 20260906021234 | 62 | 354 | 0.0 | 0.0 | 0.00 | 0.01 | 0.01 | 88 | 1015.3 |
| 20260906020729 | 62 | 354 | 0.9 | 0.9 | 0.00 | 0.01 | 0.01 | 88 | 1015.4 |
| 20260906020224 | 62 | 354 | 0.0 | 0.9 | 0.00 | 0.01 | 0.01 | 89 | 1015.2 |
| 20260906015724 | 62 | 353 | 0.0 | 0.9 | 0.00 | 0.01 | 0.01 | 90 | 1015.4 |
| 20260906015222 | 61 | 353 | 0.9 | 0.9 | 0.00 | 0.01 | 0.01 | 92 | 1015.1 |
| 20260906014716 | 61 | 353 | 0.0 | 0.0 | 0.00 | 0.01 | 0.01 | 92 | 1015.1 |
| 20260906014213 | 61 | 353 | 0.0 | 0.0 | 0.00 | 0.01 | 0.01 | 92 | 1015.1 |
| 20260906013708 | 61 | 353 | 0.0 | 0.0 | 0.00 | 0.01 | 0.01 | 91 | 1015.0 |
| 20260906013208 | 62 | 353 | 0.0 | 0.0 | 0.00 | 0.01 | 0.01 | 90 | 1015.0 |
| 20260906012703 | 62 | 353 | 0.0 | 0.0 | 0.00 | 0.01 | 0.01 | 89 | 1015.0 |
| 20260906012158 | 62 | 353 | 0.0 | 0.0 | 0.00 | 0.01 | 0.01 | 88 | 1015.2 |
| 20260906011654 | 62 | 353 | 0.0 | 0.0 | 0.00 | 0.01 | 0.01 | 87 | 1015.1 |
| 20260906011148 | 63 | 353 | 0.0 | 0.0 | 0.00 | 0.01 | 0.01 | 85 | 1015.0 |
| 20260906010644 | 63 | 353 | 0.0 | 0.0 | 0.00 | 0.01 | 0.01 | 84 | 1015.0 |
| 20260906010140 | 64 | 353 | 0.0 | 0.0 | 0.00 | 0.01 | 0.01 | 83 | 1014.9 |
| 20260906005639 | 64 | 353 | 0.0 | 0.0 | 0.00 | 0.01 | 0.01 | 80 | 1015.0 |
| 20260906005138 | 65 | 353 | 0.0 | 0.0 | 0.00 | 0.01 | 0.01 | 79 | 1015.0 |
| 20260906004638 | 65 | 353 | 0.0 | 0.0 | 0.00 | 0.01 | 0.01 | 78 | 1014.9 |
| 20260906004133 | 66 | 353 | 0.0 | 0.0 | 0.00 | 0.01 | 0.01 | 75 | 1014.8 |
| 20260906003628 | 66 | 38 | 0.0 | 0.9 | 0.00 | 0.01 | 0.01 | 74 | 1014.8 |
| 20260906003124 | 66 | 39 | 0.0 | 0.9 | 0.00 | 0.01 | 0.01 | 73 | 1014.7 |
| 20260906002619 | 67 | 39 | 0.0 | 0.0 | 0.00 | 0.01 | 0.01 | 72 | 1014.8 |
| 20260906002113 | 67 | 39 | 0.0 | 0.0 | 0.00 | 0.01 | 0.01 | 72 | 1014.7 |
| 20260906001608 | 68 | 39 | 0.0 | 0.9 | 0.00 | 0.01 | 0.01 | 68 | 1014.7 |
| 20260906001103 | 69 | 39 | 0.9 | 0.9 | 0.00 | 0.01 | 0.01 | 66 | 1014.7 |
| 20260906000559 | 69 | 39 | 0.9 | 3.5 | 0.00 | 0.01 | 0.01 | 65 | 1014.5 |
| 20260906000054 | 69 | 32 | 0.9 | 3.5 | 0.00 | 0.01 | 0.01 | 63 | 1014.7 |
| 20260905235553 | 70 | 358 | 4.3 | 4.3 | 0.00 | 0.01 | 0.01 | 63 | 1014.6 |
| 20260905235048 | 70 | 28 | 2.6 | 3.5 | 0.00 | 0.01 | 0.01 | 62 | 1014.5 |
| 20260905234544 | 70 | 343 | 1.7 | 3.5 | 0.00 | 0.01 | 0.01 | 62 | 1014.4 |
| 20260905234039 | 71 | 18 | 4.3 | 10.4 | 0.00 | 0.01 | 0.01 | 62 | 1014.6 |
| 20260905233538 | 71 | 34 | 2.6 | 4.3 | 0.00 | 0.01 | 0.01 | 63 | 1014.4 |
| 20260905233038 | 71 | 26 | 1.7 | 8.7 | 0.00 | 0.01 | 0.01 | 65 | 1014.4 |
| 20260905232534 | 71 | 30 | 4.3 | 6.1 | 0.00 | 0.01 | 0.01 | 67 | 1014.3 |
| 20260905232029 | 72 | 14 | 1.7 | 3.5 | 0.00 | 0.01 | 0.01 | 67 | 1014.2 |
| 20260905231524 | 72 | 50 | 0.9 | 4.3 | 0.00 | 0.01 | 0.01 | 67 | 1014.2 |
| 20260905231021 | 73 | 65 | 2.6 | 7.0 | 0.00 | 0.01 | 0.01 | 66 | 1014.1 |
| 20260905230520 | 73 | 61 | 7.8 | 9.6 | 0.00 | 0.01 | 0.01 | 65 | 1014.2 |
| 20260905230018 | 74 | 18 | 2.6 | 6.1 | 0.00 | 0.01 | 0.01 | 66 | 1014.0 |
| 20260905225513 | 74 | 40 | 7.0 | 9.6 | 0.00 | 0.01 | 0.01 | 65 | 1014.0 |
| 20260905225009 | 74 | 31 | 4.3 | 8.7 | 0.00 | 0.01 | 0.01 | 65 | 1014.0 |
| 20260905224504 | 74 | 56 | 3.5 | 7.0 | 0.00 | 0.01 | 0.01 | 66 | 1013.7 |
| 20260905224003 | 75 | 10 | 4.3 | 4.3 | 0.00 | 0.01 | 0.01 | 69 | 1013.7 |
| 20260905223501 | 75 | 42 | 4.3 | 6.1 | 0.00 | 0.01 | 0.01 | 69 | 1013.8 |
| 20260905222956 | 75 | 20 | 3.5 | 7.0 | 0.00 | 0.01 | 0.01 | 68 | 1013.7 |
| 20260905222456 | 75 | 344 | 3.5 | 4.3 | 0.00 | 0.01 | 0.01 | 69 | 1013.5 |
| 20260905221951 | 75 | 11 | 0.9 | 3.5 | 0.00 | 0.01 | 0.01 | 70 | 1013.7 |
| 20260905221447 | 75 | 347 | 2.6 | 4.3 | 0.00 | 0.01 | 0.01 | 71 | 1013.5 |
| 20260905220943 | 75 | 18 | 3.5 | 4.3 | 0.00 | 0.01 | 0.01 | 71 | 1013.5 |
| 20260905220439 | 75 | 52 | 4.3 | 7.0 | 0.00 | 0.01 | 0.01 | 70 | 1013.5 |
| 20260905215938 | 76 | 2 | 7.8 | 12.2 | 0.00 | 0.01 | 0.01 | 69 | 1013.3 |
| 20260905215434 | 76 | 6 | 6.1 | 8.7 | 0.00 | 0.01 | 0.01 | 71 | 1013.4 |
| 20260905214930 | 76 | 352 | 3.5 | 3.5 | 0.00 | 0.01 | 0.01 | 71 | 1013.3 |
| 20260905214426 | 77 | 35 | 2.6 | 4.3 | 0.00 | 0.01 | 0.01 | 70 | 1013.3 |
| 20260905213926 | 77 | 5 | 4.3 | 7.0 | 0.00 | 0.01 | 0.01 | 69 | 1013.2 |
| 20260905213422 | 77 | 70 | 0.9 | 8.7 | 0.00 | 0.01 | 0.01 | 70 | 1013.4 |
| 20260905212917 | 77 | 23 | 1.7 | 6.1 | 0.00 | 0.01 | 0.01 | 72 | 1013.1 |
| 20260905212412 | 76 | 31 | 3.5 | 6.1 | 0.00 | 0.01 | 0.01 | 72 | 1013.2 |
| 20260905211911 | 76 | 2 | 5.2 | 6.1 | 0.00 | 0.01 | 0.01 | 72 | 1013.2 |
| 20260905211407 | 76 | 43 | 4.3 | 8.7 | 0.00 | 0.01 | 0.01 | 72 | 1013.3 |
| 20260905210903 | 77 | 33 | 2.6 | 6.1 | 0.00 | 0.01 | 0.01 | 72 | 1013.2 |
| 20260905210357 | 77 | 24 | 1.7 | 2.6 | 0.00 | 0.01 | 0.01 | 72 | 1013.1 |
| 20260905205856 | 76 | 354 | 1.7 | 3.5 | 0.00 | 0.01 | 0.01 | 73 | 1013.1 |
| 20260905205351 | 76 | 37 | 1.7 | 4.3 | 0.00 | 0.01 | 0.01 | 73 | 1013.2 |
| 20260905204850 | 76 | 10 | 4.3 | 4.3 | 0.00 | 0.01 | 0.01 | 72 | 1013.2 |
| 20260905204347 | 76 | 4 | 3.5 | 4.3 | 0.00 | 0.01 | 0.01 | 72 | 1013.2 |
| 20260905203845 | 77 | 26 | 5.2 | 8.7 | 0.00 | 0.01 | 0.01 | 71 | 1013.3 |
| 20260905203341 | 78 | 84 | 2.6 | 3.5 | 0.00 | 0.01 | 0.01 | 70 | 1013.4 |
| 20260905202837 | 78 | 43 | 0.9 | 2.6 | 0.00 | 0.01 | 0.01 | 71 | 1013.4 |
| 20260905202331 | 78 | 74 | 1.7 | 3.5 | 0.00 | 0.01 | 0.01 | 72 | 1013.4 |
| 20260905201827 | 77 | 355 | 6.1 | 7.0 | 0.00 | 0.01 | 0.01 | 72 | 1013.3 |
| 20260905201323 | 77 | 44 | 1.7 | 6.1 | 0.00 | 0.01 | 0.01 | 71 | 1013.2 |
| 20260905200822 | 77 | 15 | 4.3 | 6.1 | 0.00 | 0.01 | 0.01 | 70 | 1013.4 |
| 20260905200318 | 77 | 35 | 4.3 | 6.1 | 0.00 | 0.01 | 0.01 | 69 | 1013.4 |
| 20260905195816 | 77 | 330 | 3.5 | 4.3 | 0.00 | 0.01 | 0.01 | 72 | 1013.3 |
| 20260905195311 | 77 | 52 | 2.6 | 3.5 | 0.00 | 0.01 | 0.01 | 69 | 1013.4 |
| 20260905194807 | 77 | 358 | 4.3 | 8.7 | 0.00 | 0.01 | 0.01 | 71 | 1013.5 |
| 20260905194301 | 77 | 31 | 2.6 | 4.3 | 0.00 | 0.01 | 0.01 | 72 | 1013.5 |
| 20260905193800 | 77 | 349 | 3.5 | 6.1 | 0.00 | 0.01 | 0.01 | 71 | 1013.7 |
| 20260905193255 | 77 | 23 | 4.3 | 6.1 | 0.00 | 0.01 | 0.01 | 71 | 1013.5 |
| 20260905192751 | 77 | 355 | 7.0 | 7.0 | 0.00 | 0.01 | 0.01 | 72 | 1013.4 |
| 20260905192247 | 77 | 328 | 5.2 | 7.0 | 0.00 | 0.01 | 0.01 | 72 | 1013.5 |
| 20260905191747 | 77 | 47 | 3.5 | 4.3 | 0.00 | 0.01 | 0.01 | 73 | 1013.7 |
| 20260905191245 | 76 | 38 | 3.5 | 4.3 | 0.00 | 0.01 | 0.01 | 74 | 1013.7 |
| 20260905190743 | 77 | 45 | 3.5 | 7.0 | 0.00 | 0.01 | 0.01 | 73 | 1013.8 |
| 20260905190243 | 77 | 43 | 4.3 | 7.0 | 0.00 | 0.01 | 0.01 | 72 | 1013.9 |
| 20260905185742 | 77 | 59 | 1.7 | 2.6 | 0.00 | 0.01 | 0.01 | 72 | 1013.8 |
| 20260905185237 | 77 | 3 | 2.6 | 3.5 | 0.00 | 0.01 | 0.01 | 73 | 1014.0 |
| 20260905184731 | 77 | 47 | 6.1 | 6.1 | 0.00 | 0.01 | 0.01 | 73 | 1014.0 |
| 20260905184230 | 77 | 9 | 7.8 | 8.7 | 0.00 | 0.01 | 0.01 | 72 | 1014.0 |
| 20260905183729 | 77 | 8 | 7.0 | 9.6 | 0.00 | 0.01 | 0.01 | 72 | 1014.1 |
| 20260905183225 | 77 | 33 | 4.3 | 9.6 | 0.00 | 0.01 | 0.01 | 75 | 1014.1 |
| 20260905182725 | 77 | 74 | 0.9 | 3.5 | 0.00 | 0.01 | 0.01 | 74 | 1013.9 |
| 20260905182224 | 77 | 61 | 2.6 | 4.3 | 0.00 | 0.01 | 0.01 | 73 | 1013.9 |
| 20260905181720 | 77 | 34 | 3.5 | 3.5 | 0.00 | 0.01 | 0.01 | 75 | 1014.0 |
| 20260905181218 | 76 | 67 | 1.7 | 4.3 | 0.00 | 0.01 | 0.01 | 76 | 1014.0 |
| 20260905180713 | 75 | 6 | 7.0 | 8.7 | 0.00 | 0.01 | 0.01 | 77 | 1014.0 |
| 20260905180209 | 76 | 359 | 5.2 | 8.7 | 0.00 | 0.01 | 0.01 | 77 | 1014.3 |
| 20260905175708 | 76 | 357 | 9.6 | 9.6 | 0.00 | 0.01 | 0.01 | 78 | 1014.2 |
| 20260905175203 | 76 | 35 | 4.3 | 7.0 | 0.00 | 0.01 | 0.01 | 78 | 1014.2 |
| 20260905174658 | 76 | 5 | 6.1 | 7.0 | 0.00 | 0.01 | 0.01 | 75 | 1014.1 |
| 20260905174154 | 75 | 355 | 3.5 | 6.1 | 0.00 | 0.01 | 0.01 | 79 | 1014.3 |
| 20260905173650 | 75 | 59 | 6.1 | 8.7 | 0.00 | 0.01 | 0.01 | 78 | 1014.4 |
| 20260905173145 | 75 | 26 | 6.1 | 9.6 | 0.00 | 0.01 | 0.01 | 79 | 1014.2 |
| 20260905172645 | 75 | 30 | 5.2 | 6.1 | 0.00 | 0.01 | 0.01 | 79 | 1014.5 |
| 20260905172139 | 75 | 42 | 1.7 | 3.5 | 0.00 | 0.01 | 0.01 | 80 | 1014.3 |
| 20260905171635 | 75 | 33 | 2.6 | 6.1 | 0.00 | 0.01 | 0.01 | 81 | 1014.4 |
| 20260905171131 | 75 | 46 | 2.6 | 4.3 | 0.00 | 0.01 | 0.01 | 80 | 1014.4 |
| 20260905170627 | 75 | 81 | 1.7 | 7.0 | 0.00 | 0.01 | 0.01 | 81 | 1014.3 |
| 20260905170123 | 76 | 45 | 5.2 | 7.0 | 0.00 | 0.01 | 0.01 | 79 | 1014.6 |
| 20260905165617 | 75 | 41 | 0.9 | 3.5 | 0.00 | 0.01 | 0.01 | 80 | 1014.3 |
| 20260905165112 | 75 | 52 | 4.3 | 6.1 | 0.00 | 0.01 | 0.01 | 82 | 1014.4 |
| 20260905164607 | 75 | 34 | 4.3 | 7.0 | 0.00 | 0.01 | 0.01 | 80 | 1014.5 |
| 20260905164101 | 75 | 40 | 2.6 | 3.5 | 0.00 | 0.01 | 0.01 | 79 | 1014.6 |
| 20260905163552 | 75 | 24 | 2.6 | 4.3 | 0.00 | 0.01 | 0.01 | 79 | 1014.5 |
| 20260905163048 | 75 | 47 | 1.7 | 3.5 | 0.00 | 0.01 | 0.01 | 81 | 1014.6 |
| 20260905162544 | 75 | 19 | 1.7 | 2.6 | 0.00 | 0.01 | 0.01 | 81 | 1014.6 |
| 20260905162043 | 75 | 11 | 2.6 | 4.3 | 0.00 | 0.01 | 0.01 | 80 | 1014.6 |
| 20260905161543 | 75 | 4 | 6.1 | 7.0 | 0.00 | 0.01 | 0.01 | 79 | 1014.6 |
| 20260905161041 | 75 | 1 | 4.3 | 6.1 | 0.00 | 0.01 | 0.01 | 81 | 1014.6 |
| 20260905160539 | 75 | 23 | 2.6 | 4.3 | 0.00 | 0.01 | 0.01 | 80 | 1014.6 |
| 20260905160034 | 75 | 89 | 1.7 | 6.1 | 0.00 | 0.01 | 0.01 | 80 | 1014.7 |
| 20260905155534 | 75 | 95 | 2.6 | 3.5 | 0.00 | 0.01 | 0.01 | 80 | 1014.8 |
| 20260905155033 | 75 | 37 | 2.6 | 4.3 | 0.00 | 0.01 | 0.01 | 80 | 1014.8 |
| 20260905154528 | 75 | 351 | 3.5 | 4.3 | 0.00 | 0.01 | 0.01 | 82 | 1014.6 |
| 20260905154024 | 75 | 8 | 3.5 | 3.5 | 0.00 | 0.01 | 0.01 | 83 | 1014.7 |
| 20260905153520 | 75 | 31 | 4.3 | 4.3 | 0.00 | 0.01 | 0.01 | 82 | 1014.8 |
| 20260905153019 | 75 | 6 | 1.7 | 2.6 | 0.00 | 0.01 | 0.01 | 82 | 1014.9 |
| 20260905152519 | 75 | 59 | 0.9 | 2.6 | 0.00 | 0.01 | 0.01 | 82 | 1014.7 |
| 20260905152015 | 75 | 0 | 0.9 | 2.6 | 0.00 | 0.01 | 0.01 | 84 | 1014.5 |
| 20260905151510 | 75 | 34 | 1.7 | 2.6 | 0.00 | 0.01 | 0.01 | 83 | 1014.4 |
| 20260905151005 | 75 | 34 | 1.7 | 0.9 | 0.00 | 0.01 | 0.01 | 84 | 1014.5 |
| 20260905150500 | 75 | 34 | 0.0 | 0.9 | 0.00 | 0.01 | 0.01 | 83 | 1014.3 |
| 20260905145956 | 75 | 33 | 0.0 | 0.0 | 0.00 | 0.01 | 0.01 | 83 | 1014.5 |
| 20260905145451 | 75 | 12 | 0.0 | 0.0 | 0.00 | 0.01 | 0.01 | 84 | 1014.3 |